Weather History for Soldotna, AK

Change the Weather History Date:

Tuesday, January 1, 2013

  Actual Average Record
Temperature  
Mean Temperature 30 °F -  
Max Temperature 37 °F 19 °F 42 °F (2002)
Min Temperature 24 °F 5 °F -31 °F (1997)
Degree Days  
Heating Degree Days 34    
Moisture  
Dew Point 28 °F    
Average Humidity 81    
Maximum Humidity 93    
Minimum Humidity 70    
Precipitation  
Precipitation 0.00 in - - ()
Sea Level Pressure  
Sea Level Pressure 29.28 in    
Wind  
Wind Speed 10 mph (East)    
Max Wind Speed 18 mph    
Max Gust Speed 29 mph    
Visibility 10 miles    
Events      
Averages and records for this station are not official NWS values.
T = Trace of Precipitation, MM = Missing Value Source: NWS Daily Summary

Daily Weather History Graph

Daily Weather History Graph

Search for Another Location

Airport:

Trip Planner

Search our weather history database for the weather conditions in past years. The results will help you decide how hot, cold, wet, or windy it might be!

Date:

Astronomy

Jan. 01, 2013 Rise Set
Actual Time 10:10 AM AKST 4:05 PM AKST
Civil Twilight 9:12 AM AKST 5:03 PM AKST
Nautical Twilight 8:15 AM AKST 6:01 PM AKST
Astronomical Twilight 7:23 AM AKST 6:53 PM AKST
Moon 10:15 PM AKST (1/1) 11:06 AM AKST (1/1)
Length of Visible Light 7h 51m
Length of Day
5h 55m
Waning Gibbous, 82% of the Moon is Illuminated
Jan 1
Waning Gibbous
Jan 4
Last Quarter
Jan 11
New
Jan 18
First Quarter
Jan 26
Full

Hourly Weather History & Observations

Time (AKST) Temp. Windchill Dew Point Humidity Pressure Visibility Wind Dir Wind Speed Gust Speed Precip Events Conditions
12:16 AM 37.4 °F 29.8 °F 33.8 °F 87% 29.47 in 10.0 mi ENE 11.5 mph 20.7 mph N/A   Overcast
12:36 AM 37.4 °F 28.5 °F 33.8 °F 87% 29.47 in 10.0 mi ENE 15.0 mph 19.6 mph N/A   Mostly Cloudy
12:56 AM 37.4 °F 28.2 °F 33.8 °F 87% 29.45 in 10.0 mi ENE 16.1 mph 21.9 mph N/A   Overcast
1:16 AM 37.4 °F 28.5 °F 32.0 °F 81% 29.46 in 10.0 mi East 15.0 mph 24.2 mph N/A   Overcast
1:36 AM 37.4 °F 27.5 °F 32.0 °F 81% 29.43 in 10.0 mi East 18.4 mph 27.6 mph N/A   Mostly Cloudy
1:56 AM 37.4 °F 27.5 °F 32.0 °F 81% 29.43 in 10.0 mi East 18.4 mph 28.8 mph N/A   Partly Cloudy
2:16 AM 37.4 °F 28.5 °F 32.0 °F 81% 29.42 in 10.0 mi East 15.0 mph 27.6 mph N/A   Clear
2:36 AM 37.4 °F 27.5 °F 32.0 °F 81% 29.40 in 10.0 mi East 18.4 mph 25.3 mph N/A   Clear
3:16 AM 37.4 °F 29.8 °F 32.0 °F 81% 29.40 in 10.0 mi East 11.5 mph 19.6 mph N/A   Clear
3:36 AM 37.4 °F 28.9 °F 32.0 °F 81% 29.40 in 10.0 mi East 13.8 mph 19.6 mph N/A   Clear
3:56 AM 37.4 °F 28.2 °F 32.0 °F 81% 29.40 in 10.0 mi East 16.1 mph 21.9 mph N/A   Clear
4:16 AM 37.4 °F 30.3 °F 32.0 °F 81% 29.39 in 10.0 mi East 10.4 mph - N/A   Clear
4:36 AM 37.4 °F 28.9 °F 32.0 °F 81% 29.39 in 10.0 mi East 13.8 mph - N/A   Clear
4:56 AM 37.4 °F 29.3 °F 30.2 °F 75% 29.38 in 10.0 mi East 12.7 mph - N/A   Clear
5:16 AM 37.4 °F 29.8 °F 30.2 °F 75% 29.37 in 10.0 mi East 11.5 mph - N/A   Clear
5:36 AM 37.4 °F 30.3 °F 30.2 °F 75% 29.36 in 10.0 mi East 10.4 mph 16.1 mph N/A   Clear
5:56 AM 37.4 °F 30.3 °F 30.2 °F 75% 29.36 in 10.0 mi East 10.4 mph - N/A   Clear
6:16 AM 35.6 °F 28.0 °F 30.2 °F 81% 29.35 in 10.0 mi ENE 10.4 mph - N/A   Clear
6:36 AM 35.6 °F 28.0 °F 30.2 °F 81% 29.34 in 10.0 mi East 10.4 mph - N/A   Clear
6:56 AM 35.6 °F - 30.2 °F 81% 29.34 in 10.0 mi Calm Calm - N/A   Clear
7:16 AM 35.6 °F 30.7 °F 30.2 °F 81% 29.35 in 10.0 mi NE 5.8 mph - N/A   Clear
7:36 AM 33.8 °F 27.0 °F 28.4 °F 81% 29.34 in 10.0 mi East 8.1 mph - N/A   Clear
7:56 AM 33.8 °F 27.7 °F 28.4 °F 81% 29.33 in 10.0 mi East 6.9 mph - N/A   Partly Cloudy
8:16 AM 32.0 °F 25.6 °F 28.4 °F 87% 29.33 in 10.0 mi East 6.9 mph - N/A   Partly Cloudy
8:36 AM 30.2 °F 22.6 °F 26.6 °F 86% 29.32 in 10.0 mi ESE 8.1 mph - N/A   Clear
9:16 AM 35.6 °F 31.7 °F 28.4 °F 75% 29.33 in 10.0 mi East 4.6 mph - N/A   Clear
9:36 AM 35.6 °F 28.0 °F 30.2 °F 81% 29.32 in 10.0 mi ENE 10.4 mph - N/A   Clear
9:56 AM 35.6 °F 29.2 °F 28.4 °F 75% 29.32 in 10.0 mi ENE 8.1 mph - N/A   Clear
10:16 AM 33.8 °F 27.0 °F 26.6 °F 75% 29.31 in 10.0 mi East 8.1 mph - N/A   Clear
10:36 AM 32.0 °F 23.6 °F 28.4 °F 87% 29.31 in 10.0 mi East 10.4 mph - N/A   Clear
10:56 AM 33.8 °F 25.3 °F 28.4 °F 81% 29.31 in 10.0 mi East 11.5 mph - N/A   Clear
11:16 AM 35.6 °F 26.2 °F 28.4 °F 75% 29.29 in 10.0 mi ESE 15.0 mph - N/A   Clear
11:36 AM 35.6 °F 28.6 °F 28.4 °F 75% 29.29 in 10.0 mi East 9.2 mph - N/A   Clear
11:56 AM 35.6 °F 28.0 °F 28.4 °F 75% 29.27 in 10.0 mi ESE 10.4 mph - N/A   Clear
12:16 PM 35.6 °F 27.5 °F 28.4 °F 75% 29.26 in 10.0 mi ESE 11.5 mph - N/A   Clear
12:36 PM 35.6 °F 29.2 °F 28.4 °F 75% 29.26 in 10.0 mi ESE 8.1 mph - N/A   Clear
12:56 PM 35.6 °F 29.9 °F 28.4 °F 75% 29.24 in 10.0 mi NNW 6.9 mph - N/A   Clear
1:16 PM 37.4 °F - 28.4 °F 70% 29.24 in 10.0 mi Calm Calm - N/A   Clear
1:36 PM 37.4 °F 32.8 °F 28.4 °F 70% 29.23 in 10.0 mi ENE 5.8 mph - N/A   Clear
1:56 PM 37.4 °F 31.4 °F 30.2 °F 75% 29.22 in 10.0 mi ENE 8.1 mph - N/A   Clear
2:16 PM 37.4 °F 34.9 °F 28.4 °F 70% 29.22 in 10.0 mi NE 3.5 mph - N/A   Clear
2:36 PM 37.4 °F 33.8 °F 28.4 °F 70% 29.22 in 10.0 mi North 4.6 mph - N/A   Clear
2:56 PM 35.6 °F 32.8 °F 26.6 °F 70% 29.22 in 10.0 mi NNW 3.5 mph - N/A   Clear
3:16 PM 33.8 °F - 24.8 °F 70% 29.21 in 10.0 mi Calm Calm - N/A   Clear
3:36 PM 32.0 °F - 24.8 °F 75% 29.20 in 10.0 mi Calm Calm - N/A   Clear
3:56 PM 30.2 °F - 23.0 °F 75% 29.19 in 10.0 mi Calm Calm - N/A   Clear
4:16 PM 28.4 °F - 24.8 °F 86% 29.18 in 10.0 mi Calm Calm - N/A   Clear
4:36 PM 28.4 °F - 24.8 °F 86% 29.18 in 10.0 mi Calm Calm - N/A   Clear
4:56 PM 26.6 °F - 23.0 °F 86% 29.17 in 10.0 mi Calm Calm - N/A   Clear
5:16 PM 26.6 °F - 23.0 °F 86% 29.17 in 10.0 mi Calm Calm - N/A   Clear
5:36 PM 26.6 °F - 24.8 °F 93% 29.16 in 10.0 mi Calm Calm - N/A   Clear
5:56 PM 26.6 °F - 21.2 °F 80% 29.16 in 10.0 mi Calm Calm - N/A   Clear
6:16 PM 26.6 °F - 23.0 °F 86% 29.17 in 10.0 mi Calm Calm - N/A   Clear
6:36 PM 26.6 °F 21.2 °F 21.2 °F 80% 29.15 in 10.0 mi ENE 4.6 mph - N/A   Clear
6:56 PM 24.8 °F 20.5 °F 21.2 °F 86% 29.16 in 10.0 mi East 3.5 mph - N/A   Clear
7:16 PM 26.6 °F 19.1 °F 24.8 °F 93% 29.16 in 10.0 mi East 6.9 mph - N/A   Clear
7:36 PM 28.4 °F 20.4 °F 24.8 °F 86% 29.16 in 10.0 mi ESE 8.1 mph - N/A   Partly Cloudy
7:56 PM 30.2 °F 24.3 °F 24.8 °F 80% 29.16 in 10.0 mi East 5.8 mph - N/A   Scattered Clouds
8:16 PM 30.2 °F 24.3 °F 24.8 °F 80% 29.16 in 10.0 mi ESE 5.8 mph - N/A   Mostly Cloudy
8:36 PM 30.2 °F 23.4 °F 26.6 °F 86% 29.16 in 10.0 mi East 6.9 mph - N/A   Mostly Cloudy
8:56 PM 30.2 °F 23.4 °F 26.6 °F 86% 29.17 in 10.0 mi ESE 6.9 mph - N/A   Overcast
9:36 PM 30.2 °F 22.6 °F 26.6 °F 86% 29.17 in 10.0 mi ESE 8.1 mph - N/A   Overcast
9:56 PM 30.2 °F 24.3 °F 26.6 °F 86% 29.18 in 10.0 mi ESE 5.8 mph - N/A   Overcast
10:16 PM 30.2 °F 26.7 °F 26.6 °F 86% 29.19 in 10.0 mi SE 3.5 mph - N/A   Overcast
10:36 PM 30.2 °F 25.4 °F 26.6 °F 86% 29.20 in 10.0 mi ESE 4.6 mph - N/A   Mostly Cloudy
10:56 PM 30.2 °F 24.3 °F 26.6 °F 86% 29.20 in 10.0 mi ESE 5.8 mph - N/A   Overcast
11:36 PM 32.0 °F 27.5 °F 26.6 °F 80% 29.22 in 10.0 mi ESE 4.6 mph - N/A   Overcast
11:56 PM 30.2 °F 23.4 °F 26.6 °F 86% 29.23 in 10.0 mi ESE 6.9 mph - N/A   Overcast